Погода в Саках

Россия / Республика Крым     45°07′55″N   33°36′00″E
темп.,
°C
ветер,
м/с
пор.,
м/с
влажн.,
%
обл.,
%
осадки,
мм/ч
давл.,
гПа
погр.,
м
27 октября, ср
ср2700:00+5в46660 0.0 1028144
03:00+5в33660 0.0 102791
06:00+4всв33700 0.0 102751
09:00+7св22660 0.0 1027125
12:00+12сз34540 0.0 1026813
15:00+14зсз44490 0.0 10251076
18:00+10зсз44600 0.0 1025173
21:00+7ссз22710 0.0 102665
28 октября, чт
чт2800:00+6в11760 0.0 102645
03:00+6ссв227631 0.0 102644
06:00+5ссв227648 0.0 102651
09:00+8св226655 0.0 1027120
12:00+12ссз12505 0.0 1026704
15:00+14з334836 0.0 10251123
18:00+12сз34625 0.0 1025144
21:00+10ссз33685 0.0 102654
29 октября, пт
пт2900:00+8зсз11785 0.0 102533
03:00+8ююз11785 0.0 102536
06:00+9юз227825 0.0 102566
09:00+12зюз116988 0.0 1026124
12:00+15с12555 0.0 1026750
15:00+16св445499 0.0 1026688
18:00+13св587015 0.0 1027208
21:00+10всв48840 0.0 1028169
30 октября, сб
сб3000:00+9всв610900 0.0 1028224
03:00+8всв510910 0.0 1028221
06:00+8всв611920 0.0 1028250
09:00+10всв712870 0.0 1029442
12:00+14в810550 0.0 10291125
15:00+15всв810460 0.0 10281230
18:00+11всв812670 0.0 1029595
21:00+9всв713800 0.0 1029471
31 октября, вс
вс3100:00+8всв612900 0.0 1028318
03:00+7всв611910 0.0 1028291
06:00+7всв5119333 0.0 1027302
09:00+10всв611750 0.0 1026655
12:00+14в66540 0.0 1026793
15:00+16в44470 0.0 1024991
18:00+11всв69680 0.0 1024326
21:00+9всв510850 0.0 1024242